| time (UTC) | temp F | wind direction | speed MPH | gust MPH | rain 1hr in | rain 24hr in | rain mn in | humidity % | barometer mb |
| 20260509194649 | 69 | 269 | 0.0 | 0.0 | 0.00 | 0.00 | 0.00 | 74 | 1017.3 |
| 20260509194146 | 69 | 269 | 1.0 | 2.0 | 0.00 | 0.00 | 0.00 | 73 | 1017.1 |
| 20260509193642 | 69 | 269 | 0.0 | 2.0 | 0.00 | 0.00 | 0.00 | 73 | 1017.3 |
| 20260509193138 | 69 | 274 | 0.0 | 0.0 | 0.00 | 0.00 | 0.00 | 73 | 1017.7 |
| 20260509192635 | 69 | 289 | 0.0 | 0.0 | 0.00 | 0.00 | 0.00 | 73 | 1017.5 |
| 20260509192129 | 69 | 223 | 2.0 | 3.0 | 0.00 | 0.00 | 0.00 | 72 | 1017.7 |
| 20260509191624 | 69 | 274 | 0.0 | 2.0 | 0.00 | 0.00 | 0.00 | 73 | 1017.6 |
| 20260509191121 | 69 | 273 | 1.0 | 2.0 | 0.00 | 0.00 | 0.00 | 73 | 1017.7 |
| 20260509190617 | 70 | 244 | 1.0 | 2.0 | 0.00 | 0.00 | 0.00 | 73 | 1017.6 |
| 20260509190115 | 69 | 295 | 0.0 | 0.0 | 0.00 | 0.00 | 0.00 | 73 | 1017.6 |
| 20260509185612 | 69 | 263 | 1.0 | 2.0 | 0.00 | 0.00 | 0.00 | 74 | 1017.7 |
| 20260509185108 | 70 | 256 | 3.0 | 3.0 | 0.00 | 0.00 | 0.00 | 74 | 1017.4 |
| 20260509184606 | 69 | 248 | 2.0 | 3.0 | 0.00 | 0.00 | 0.00 | 75 | 1017.4 |
| 20260509184103 | 69 | 261 | 0.0 | 2.0 | 0.00 | 0.00 | 0.00 | 75 | 1017.5 |
| 20260509183558 | 69 | 271 | 3.0 | 3.0 | 0.00 | 0.00 | 0.00 | 75 | 1017.7 |
| 20260509183054 | 69 | 275 | 0.0 | 2.0 | 0.00 | 0.00 | 0.00 | 74 | 1017.8 |
| 20260509182551 | 69 | 237 | 3.0 | 3.0 | 0.00 | 0.00 | 0.00 | 74 | 1017.9 |
| 20260509182047 | 69 | 275 | 1.0 | 2.0 | 0.00 | 0.00 | 0.00 | 74 | 1017.9 |
| 20260509181546 | 69 | 292 | 0.0 | 0.0 | 0.00 | 0.00 | 0.00 | 77 | 1017.9 |
| 20260509181043 | 69 | 281 | 1.0 | 2.0 | 0.00 | 0.00 | 0.00 | 75 | 1018.0 |
| 20260509180538 | 68 | 287 | 0.0 | 0.0 | 0.00 | 0.00 | 0.00 | 77 | 1018.0 |
| 20260509180036 | 68 | 301 | 0.0 | 0.0 | 0.00 | 0.00 | 0.00 | 78 | 1018.4 |
| 20260509175531 | 68 | 169 | 3.0 | 3.0 | 0.00 | 0.00 | 0.00 | 76 | 1018.3 |
| 20260509175029 | 68 | 306 | 0.0 | 2.0 | 0.00 | 0.00 | 0.00 | 76 | 1018.3 |
| 20260509174526 | 69 | 272 | 1.0 | 2.0 | 0.00 | 0.00 | 0.00 | 77 | 1018.2 |
| 20260509174020 | 68 | 262 | 2.0 | 2.0 | 0.00 | 0.00 | 0.00 | 78 | 1018.1 |
| 20260509173514 | 68 | 277 | 0.0 | 0.0 | 0.00 | 0.00 | 0.00 | 80 | 1018.1 |
| 20260509173011 | 67 | 259 | 4.0 | 5.0 | 0.00 | 0.00 | 0.00 | 78 | 1018.2 |
| 20260509172508 | 67 | 217 | 3.0 | 3.0 | 0.00 | 0.00 | 0.00 | 80 | 1018.1 |
| 20260509172004 | 67 | 241 | 2.0 | 2.0 | 0.00 | 0.00 | 0.00 | 81 | 1017.8 |
| 20260509171500 | 67 | 303 | 1.0 | 2.0 | 0.00 | 0.00 | 0.00 | 81 | 1018.2 |
| 20260509170956 | 67 | 282 | 1.0 | 3.0 | 0.00 | 0.00 | 0.00 | 83 | 1018.0 |
| 20260509170452 | 66 | 225 | 3.0 | 3.0 | 0.00 | 0.00 | 0.00 | 82 | 1017.9 |
| 20260509165948 | 66 | 295 | 1.0 | 2.0 | 0.00 | 0.00 | 0.00 | 84 | 1017.9 |
| 20260509165447 | 66 | 298 | 1.0 | 2.0 | 0.00 | 0.00 | 0.00 | 84 | 1017.7 |
| 20260509164943 | 66 | 285 | 0.0 | 0.0 | 0.00 | 0.00 | 0.00 | 84 | 1018.1 |
| 20260509164439 | 66 | 299 | 0.0 | 2.0 | 0.00 | 0.00 | 0.00 | 84 | 1017.9 |
| 20260509163935 | 66 | 247 | 3.0 | 3.0 | 0.00 | 0.00 | 0.00 | 84 | 1018.0 |
| 20260509163433 | 66 | 264 | 1.0 | 2.0 | 0.00 | 0.00 | 0.00 | 84 | 1018.2 |
| 20260509162931 | 66 | 303 | 0.0 | 2.0 | 0.00 | 0.00 | 0.00 | 84 | 1018.4 |
| 20260509162431 | 66 | 258 | 1.0 | 2.0 | 0.00 | 0.00 | 0.00 | 84 | 1018.2 |
| 20260509161926 | 66 | 282 | 0.0 | 0.0 | 0.00 | 0.00 | 0.00 | 84 | 1018.3 |
| 20260509161423 | 66 | 223 | 4.0 | 7.0 | 0.00 | 0.00 | 0.00 | 84 | 1018.6 |
| 20260509160918 | 66 | 291 | 1.0 | 2.0 | 0.00 | 0.00 | 0.00 | 85 | 1018.4 |
| 20260509160414 | 65 | 249 | 2.0 | 3.0 | 0.00 | 0.00 | 0.00 | 85 | 1018.2 |
| 20260509155909 | 65 | 267 | 2.0 | 3.0 | 0.00 | 0.00 | 0.00 | 85 | 1018.2 |
| 20260509155407 | 65 | 302 | 0.0 | 0.0 | 0.00 | 0.00 | 0.00 | 86 | 1018.3 |
| 20260509154903 | 65 | 285 | 0.0 | 0.0 | 0.00 | 0.00 | 0.00 | 87 | 1018.2 |
| 20260509154359 | 65 | 292 | 0.0 | 0.0 | 0.00 | 0.00 | 0.00 | 87 | 1018.0 |
| 20260509153856 | 64 | 271 | 0.0 | 2.0 | 0.00 | 0.00 | 0.00 | 87 | 1017.8 |
| 20260509153353 | 65 | 272 | 2.0 | 2.0 | 0.00 | 0.00 | 0.00 | 87 | 1018.2 |
| 20260509152850 | 64 | 278 | 0.0 | 0.0 | 0.00 | 0.00 | 0.00 | 87 | 1018.0 |
| 20260509152346 | 64 | 305 | 1.0 | 2.0 | 0.00 | 0.00 | 0.00 | 87 | 1017.7 |
| 20260509151843 | 64 | 280 | 1.0 | 2.0 | 0.00 | 0.00 | 0.00 | 87 | 1017.8 |
| 20260509151339 | 64 | 278 | 0.0 | 0.0 | 0.00 | 0.00 | 0.00 | 87 | 1018.2 |
| 20260509150838 | 64 | 275 | 0.0 | 0.0 | 0.00 | 0.00 | 0.00 | 87 | 1018.1 |
| 20260509150336 | 64 | 280 | 0.0 | 0.0 | 0.00 | 0.00 | 0.00 | 87 | 1018.4 |
| 20260509145833 | 64 | 206 | 3.0 | 5.0 | 0.00 | 0.00 | 0.00 | 87 | 1018.6 |
| 20260509145333 | 64 | 229 | 5.0 | 7.0 | 0.00 | 0.00 | 0.00 | 88 | 1018.4 |
| 20260509144830 | 64 | 247 | 4.0 | 5.0 | 0.00 | 0.00 | 0.00 | 88 | 1018.5 |
| 20260509144327 | 64 | 221 | 2.0 | 3.0 | 0.00 | 0.00 | 0.00 | 88 | 1018.5 |
| 20260509143824 | 63 | 185 | 4.0 | 5.0 | 0.00 | 0.00 | 0.00 | 88 | 1018.4 |
| 20260509143321 | 63 | 259 | 3.0 | 3.0 | 0.00 | 0.00 | 0.00 | 88 | 1018.5 |
| 20260509142817 | 63 | 238 | 0.0 | 2.0 | 0.00 | 0.00 | 0.00 | 88 | 1018.5 |
| 20260509142313 | 63 | 261 | 2.0 | 3.0 | 0.00 | 0.00 | 0.00 | 88 | 1018.7 |
| 20260509141809 | 62 | 239 | 2.0 | 3.0 | 0.00 | 0.00 | 0.00 | 89 | 1018.4 |
| 20260509141306 | 62 | 269 | 2.0 | 2.0 | 0.00 | 0.00 | 0.00 | 89 | 1018.5 |
| 20260509140803 | 62 | 257 | 2.0 | 2.0 | 0.00 | 0.00 | 0.00 | 89 | 1018.5 |
| 20260509140300 | 62 | 268 | 2.0 | 3.0 | 0.00 | 0.00 | 0.00 | 89 | 1018.5 |
| 20260509135758 | 62 | 269 | 1.0 | 2.0 | 0.00 | 0.00 | 0.00 | 89 | 1018.5 |
| 20260509135255 | 62 | 272 | 2.0 | 2.0 | 0.00 | 0.00 | 0.00 | 89 | 1018.4 |
| 20260509134752 | 62 | 201 | 3.0 | 3.0 | 0.00 | 0.00 | 0.00 | 89 | 1018.4 |
| 20260509134250 | 62 | 255 | 3.0 | 5.0 | 0.00 | 0.00 | 0.00 | 89 | 1018.6 |
| 20260509133746 | 62 | 135 | 3.0 | 5.0 | 0.00 | 0.00 | 0.00 | 89 | 1018.5 |
| 20260509133243 | 61 | 256 | 3.0 | 3.0 | 0.00 | 0.00 | 0.00 | 89 | 1018.3 |
| 20260509132742 | 61 | 210 | 4.0 | 5.0 | 0.00 | 0.00 | 0.00 | 89 | 1018.2 |
| 20260509132240 | 61 | 263 | 3.0 | 3.0 | 0.00 | 0.00 | 0.00 | 89 | 1017.9 |
| 20260509131736 | 61 | 205 | 2.0 | 2.0 | 0.00 | 0.00 | 0.00 | 89 | 1017.4 |
| 20260509131233 | 61 | 229 | 2.0 | 2.0 | 0.00 | 0.00 | 0.00 | 89 | 1017.7 |
| 20260509130729 | 61 | 246 | 2.0 | 2.0 | 0.00 | 0.00 | 0.00 | 89 | 1017.6 |
| 20260509130225 | 61 | 165 | 1.0 | 3.0 | 0.00 | 0.00 | 0.00 | 89 | 1017.8 |
| 20260509125722 | 61 | 271 | 2.0 | 3.0 | 0.00 | 0.00 | 0.00 | 89 | 1018.1 |
| 20260509125219 | 61 | 179 | 2.0 | 3.0 | 0.00 | 0.00 | 0.00 | 89 | 1018.2 |
| 20260509124715 | 61 | 262 | 0.0 | 0.0 | 0.00 | 0.00 | 0.00 | 89 | 1018.2 |
| 20260509124212 | 61 | 258 | 3.0 | 5.0 | 0.00 | 0.00 | 0.00 | 89 | 1018.4 |
| 20260509123710 | 61 | 259 | 3.0 | 3.0 | 0.00 | 0.00 | 0.00 | 89 | 1018.1 |
| 20260509123207 | 61 | 128 | 4.0 | 5.0 | 0.00 | 0.00 | 0.00 | 89 | 1018.0 |
| 20260509122702 | 60 | 262 | 0.0 | 0.0 | 0.00 | 0.00 | 0.00 | 89 | 1017.9 |
| 20260509122200 | 60 | 196 | 2.0 | 3.0 | 0.00 | 0.00 | 0.00 | 89 | 1017.8 |
| 20260509121656 | 60 | 223 | 1.0 | 2.0 | 0.00 | 0.00 | 0.00 | 89 | 1017.8 |
| 20260509121154 | 60 | 254 | 0.0 | 2.0 | 0.00 | 0.00 | 0.00 | 89 | 1018.0 |
| 20260509120652 | 60 | 219 | 2.0 | 3.0 | 0.00 | 0.00 | 0.00 | 89 | 1017.9 |
| 20260509120150 | 60 | 268 | 1.0 | 2.0 | 0.00 | 0.00 | 0.00 | 89 | 1017.7 |
| 20260509115647 | 60 | 254 | 2.0 | 2.0 | 0.00 | 0.00 | 0.00 | 89 | 1017.6 |
| 20260509115144 | 60 | 268 | 2.0 | 2.0 | 0.00 | 0.00 | 0.00 | 89 | 1017.8 |
| 20260509114642 | 60 | 271 | 0.0 | 0.0 | 0.00 | 0.00 | 0.00 | 89 | 1017.7 |
| 20260509114141 | 60 | 272 | 1.0 | 2.0 | 0.00 | 0.00 | 0.00 | 89 | 1017.7 |
| 20260509113639 | 60 | 287 | 0.0 | 0.0 | 0.00 | 0.00 | 0.00 | 89 | 1017.6 |
| 20260509113136 | 60 | 271 | 0.0 | 2.0 | 0.00 | 0.00 | 0.00 | 89 | 1017.8 |
| 20260509112633 | 60 | 184 | 3.0 | 3.0 | 0.00 | 0.00 | 0.00 | 89 | 1017.6 |
| 20260509112130 | 60 | 204 | 3.0 | 3.0 | 0.00 | 0.00 | 0.00 | 89 | 1017.4 |
| 20260509111627 | 60 | 247 | 1.0 | 2.0 | 0.00 | 0.00 | 0.00 | 89 | 1017.1 |
| 20260509111123 | 60 | 284 | 0.0 | 0.0 | 0.00 | 0.00 | 0.00 | 89 | 1016.8 |
| 20260509110621 | 60 | 275 | 0.0 | 0.0 | 0.00 | 0.00 | 0.00 | 89 | 1016.8 |
| 20260509110118 | 60 | 281 | 0.0 | 0.0 | 0.00 | 0.00 | 0.00 | 89 | 1016.7 |
| 20260509105616 | 60 | 236 | 2.0 | 2.0 | 0.00 | 0.00 | 0.00 | 89 | 1017.0 |
| 20260509105113 | 60 | 251 | 2.0 | 2.0 | 0.00 | 0.00 | 0.00 | 89 | 1017.0 |
| 20260509104610 | 59 | 267 | 0.0 | 2.0 | 0.00 | 0.00 | 0.00 | 89 | 1016.8 |
| 20260509104108 | 59 | 265 | 0.0 | 2.0 | 0.00 | 0.00 | 0.00 | 89 | 1016.8 |
| 20260509103605 | 59 | 265 | 0.0 | 0.0 | 0.00 | 0.00 | 0.00 | 89 | 1017.1 |
| 20260509103103 | 59 | 279 | 0.0 | 0.0 | 0.00 | 0.00 | 0.00 | 89 | 1017.3 |
| 20260509102600 | 59 | 279 | 0.0 | 0.0 | 0.00 | 0.00 | 0.00 | 89 | 1017.2 |
| 20260509102056 | 59 | 248 | 2.0 | 2.0 | 0.00 | 0.00 | 0.00 | 89 | 1017.7 |
| 20260509101553 | 59 | 275 | 1.0 | 2.0 | 0.00 | 0.00 | 0.00 | 89 | 1017.4 |
| 20260509101049 | 59 | 272 | 1.0 | 2.0 | 0.00 | 0.00 | 0.00 | 89 | 1017.7 |
| 20260509100547 | 59 | 263 | 2.0 | 2.0 | 0.00 | 0.00 | 0.00 | 89 | 1017.5 |
| 20260509100044 | 59 | 265 | 0.0 | 0.0 | 0.00 | 0.00 | 0.00 | 89 | 1017.7 |
| 20260509095540 | 59 | 274 | 0.0 | 0.0 | 0.00 | 0.00 | 0.00 | 89 | 1017.8 |
| 20260509095038 | 59 | 283 | 0.0 | 0.0 | 0.00 | 0.00 | 0.00 | 89 | 1017.9 |
| 20260509094534 | 59 | 282 | 0.0 | 0.0 | 0.00 | 0.00 | 0.00 | 89 | 1018.1 |
| 20260509094032 | 59 | 282 | 0.0 | 0.0 | 0.00 | 0.00 | 0.00 | 89 | 1018.0 |
| 20260509093530 | 59 | 269 | 0.0 | 2.0 | 0.00 | 0.00 | 0.00 | 89 | 1018.0 |
| 20260509093027 | 59 | 275 | 0.0 | 0.0 | 0.00 | 0.00 | 0.00 | 89 | 1018.0 |
| 20260509092525 | 59 | 278 | 0.0 | 0.0 | 0.00 | 0.00 | 0.00 | 89 | 1017.9 |
| 20260509092023 | 59 | 288 | 0.0 | 0.0 | 0.00 | 0.00 | 0.00 | 89 | 1017.6 |
| 20260509091520 | 59 | 289 | 0.0 | 0.0 | 0.00 | 0.00 | 0.00 | 89 | 1017.7 |
| 20260509091017 | 60 | 289 | 0.0 | 0.0 | 0.00 | 0.00 | 0.00 | 89 | 1017.7 |
| 20260509090514 | 60 | 288 | 0.0 | 0.0 | 0.00 | 0.00 | 0.00 | 89 | 1017.4 |
| 20260509090012 | 60 | 289 | 0.0 | 0.0 | 0.00 | 0.00 | 0.00 | 89 | 1017.7 |
| 20260509085508 | 60 | 288 | 0.0 | 0.0 | 0.00 | 0.00 | 0.00 | 89 | 1017.5 |
| 20260509085005 | 60 | 289 | 0.0 | 0.0 | 0.00 | 0.00 | 0.00 | 88 | 1017.7 |
| 20260509084502 | 59 | 288 | 0.0 | 0.0 | 0.00 | 0.00 | 0.00 | 88 | 1017.6 |
| 20260509083959 | 59 | 288 | 0.0 | 0.0 | 0.00 | 0.00 | 0.00 | 88 | 1017.3 |
| 20260509083456 | 59 | 279 | 0.0 | 0.0 | 0.00 | 0.00 | 0.00 | 88 | 1017.1 |
| 20260509082952 | 59 | 273 | 0.0 | 0.0 | 0.00 | 0.00 | 0.00 | 88 | 1017.1 |
| 20260509082450 | 59 | 280 | 0.0 | 0.0 | 0.00 | 0.00 | 0.00 | 89 | 1017.4 |
| 20260509081947 | 59 | 282 | 0.0 | 0.0 | 0.00 | 0.00 | 0.00 | 89 | 1017.4 |
| 20260509081444 | 59 | 282 | 0.0 | 0.0 | 0.00 | 0.00 | 0.00 | 89 | 1017.4 |
| 20260509080941 | 59 | 278 | 0.0 | 0.0 | 0.00 | 0.00 | 0.00 | 89 | 1017.2 |
| 20260509080439 | 59 | 273 | 0.0 | 0.0 | 0.00 | 0.00 | 0.00 | 89 | 1017.5 |
| 20260509075937 | 59 | 284 | 0.0 | 0.0 | 0.00 | 0.00 | 0.00 | 89 | 1017.1 |
| 20260509075434 | 59 | 282 | 0.0 | 0.0 | 0.00 | 0.00 | 0.00 | 89 | 1017.0 |
| 20260509074932 | 59 | 282 | 0.0 | 0.0 | 0.00 | 0.00 | 0.00 | 88 | 1016.9 |
| 20260509074429 | 59 | 301 | 0.0 | 0.0 | 0.00 | 0.00 | 0.00 | 88 | 1016.6 |
| 20260509073925 | 59 | 302 | 0.0 | 0.0 | 0.00 | 0.00 | 0.00 | 88 | 1016.8 |
| 20260509073422 | 59 | 279 | 1.0 | 2.0 | 0.00 | 0.00 | 0.00 | 88 | 1016.9 |
| 20260509072918 | 59 | 271 | 2.0 | 2.0 | 0.00 | 0.00 | 0.00 | 88 | 1016.9 |
| 20260509072415 | 59 | 291 | 0.0 | 0.0 | 0.00 | 0.00 | 0.00 | 88 | 1017.0 |
| 20260509071911 | 59 | 274 | 0.0 | 2.0 | 0.00 | 0.00 | 0.00 | 88 | 1016.8 |
| 20260509071409 | 59 | 288 | 0.0 | 0.0 | 0.00 | 0.00 | 0.00 | 88 | 1016.6 |
| 20260509070906 | 59 | 267 | 0.0 | 0.0 | 0.00 | 0.00 | 0.00 | 88 | 1016.8 |
| 20260509070403 | 59 | 250 | 2.0 | 2.0 | 0.00 | 0.00 | 0.00 | 88 | 1017.2 |
| 20260509065858 | 59 | 284 | 0.0 | 0.0 | 0.00 | 0.00 | 0.00 | 88 | 1017.0 |
| 20260509065355 | 59 | 275 | 0.0 | 2.0 | 0.00 | 0.00 | 0.00 | 88 | 1017.1 |
| 20260509064851 | 59 | 257 | 0.0 | 2.0 | 0.00 | 0.00 | 0.00 | 88 | 1017.3 |
| 20260509064349 | 59 | 293 | 0.0 | 0.0 | 0.00 | 0.00 | 0.00 | 87 | 1017.5 |
| 20260509063846 | 59 | 267 | 1.0 | 2.0 | 0.00 | 0.00 | 0.00 | 87 | 1017.6 |
| 20260509063342 | 59 | 284 | 0.0 | 0.0 | 0.00 | 0.00 | 0.00 | 87 | 1017.6 |
| 20260509062839 | 59 | 282 | 0.0 | 0.0 | 0.00 | 0.00 | 0.00 | 87 | 1017.6 |
| 20260509062336 | 60 | 272 | 0.0 | 0.0 | 0.00 | 0.00 | 0.00 | 87 | 1017.9 |
| 20260509061833 | 60 | 284 | 0.0 | 0.0 | 0.00 | 0.00 | 0.00 | 87 | 1018.1 |
| 20260509061332 | 60 | 295 | 0.0 | 0.0 | 0.00 | 0.00 | 0.00 | 87 | 1018.0 |
| 20260509060828 | 60 | 292 | 0.0 | 0.0 | 0.00 | 0.00 | 0.00 | 87 | 1018.0 |
| 20260509060325 | 60 | 264 | 1.0 | 2.0 | 0.00 | 0.00 | 0.00 | 87 | 1018.1 |
| 20260509055821 | 60 | 264 | 1.0 | 2.0 | 0.00 | 0.00 | 0.00 | 87 | 1018.2 |
| 20260509055316 | 60 | 280 | 0.0 | 0.0 | 0.00 | 0.00 | 0.00 | 87 | 1018.2 |
| 20260509054814 | 60 | 280 | 0.0 | 0.0 | 0.00 | 0.00 | 0.00 | 87 | 1018.4 |
| 20260509054310 | 60 | 255 | 2.0 | 2.0 | 0.00 | 0.00 | 0.00 | 87 | 1018.3 |
| 20260509053809 | 60 | 294 | 0.0 | 0.0 | 0.00 | 0.00 | 0.00 | 87 | 1018.4 |
| 20260509053305 | 60 | 272 | 0.0 | 0.0 | 0.00 | 0.00 | 0.00 | 87 | 1018.3 |
| 20260509052803 | 60 | 269 | 2.0 | 2.0 | 0.00 | 0.00 | 0.00 | 87 | 1018.2 |
| 20260509052301 | 60 | 283 | 0.0 | 2.0 | 0.00 | 0.00 | 0.00 | 87 | 1018.4 |
| 20260509051758 | 60 | 272 | 0.0 | 2.0 | 0.00 | 0.00 | 0.00 | 86 | 1018.4 |
| 20260509051256 | 60 | 302 | 0.0 | 0.0 | 0.00 | 0.00 | 0.00 | 86 | 1018.3 |
| 20260509050753 | 60 | 274 | 0.0 | 2.0 | 0.00 | 0.00 | 0.00 | 86 | 1018.2 |
| 20260509050249 | 60 | 292 | 0.0 | 0.0 | 0.00 | 0.00 | 0.00 | 86 | 1018.5 |
| 20260509045746 | 60 | 251 | 0.0 | 0.0 | 0.00 | 0.00 | 0.00 | 86 | 1018.5 |
| 20260509045243 | 60 | 289 | 0.0 | 0.0 | 0.00 | 0.00 | 0.00 | 86 | 1018.4 |
| 20260509044741 | 60 | 230 | 0.0 | 0.0 | 0.00 | 0.00 | 0.00 | 86 | 1018.5 |
| 20260509044238 | 60 | 278 | 0.0 | 0.0 | 0.00 | 0.00 | 0.00 | 86 | 1018.7 |
| 20260509043734 | 60 | 284 | 2.0 | 3.0 | 0.00 | 0.00 | 0.00 | 86 | 1018.6 |
| 20260509043230 | 60 | 278 | 0.0 | 0.0 | 0.00 | 0.00 | 0.00 | 85 | 1018.6 |
| 20260509042726 | 60 | 278 | 0.0 | 0.0 | 0.00 | 0.00 | 0.00 | 85 | 1019.0 |
| 20260509042223 | 60 | 278 | 0.0 | 0.0 | 0.00 | 0.00 | 0.00 | 86 | 1018.7 |
| 20260509041720 | 60 | 293 | 0.0 | 0.0 | 0.00 | 0.00 | 0.00 | 85 | 1018.7 |
| 20260509041217 | 60 | 293 | 0.0 | 0.0 | 0.00 | 0.00 | 0.00 | 85 | 1018.7 |
| 20260509040715 | 61 | 293 | 0.0 | 0.0 | 0.00 | 0.00 | 0.00 | 85 | 1018.8 |
| 20260509040212 | 61 | 293 | 0.0 | 0.0 | 0.00 | 0.00 | 0.00 | 85 | 1019.0 |
| 20260509035708 | 61 | 293 | 0.0 | 0.0 | 0.00 | 0.00 | 0.00 | 85 | 1018.7 |
| 20260509035205 | 60 | 293 | 0.0 | 0.0 | 0.00 | 0.00 | 0.00 | 84 | 1019.1 |
| 20260509034703 | 61 | 293 | 0.0 | 0.0 | 0.00 | 0.00 | 0.00 | 84 | 1019.1 |
| 20260509034200 | 61 | 293 | 0.0 | 0.0 | 0.00 | 0.00 | 0.00 | 84 | 1019.3 |
| 20260509033657 | 61 | 293 | 0.0 | 0.0 | 0.00 | 0.00 | 0.00 | 84 | 1019.4 |
| 20260509033154 | 61 | 293 | 0.0 | 0.0 | 0.00 | 0.00 | 0.00 | 84 | 1019.1 |
| 20260509032651 | 61 | 293 | 0.0 | 0.0 | 0.00 | 0.00 | 0.00 | 84 | 1019.1 |
| 20260509032148 | 61 | 294 | 0.0 | 0.0 | 0.00 | 0.00 | 0.00 | 83 | 1019.1 |
| 20260509031646 | 61 | 279 | 0.0 | 0.0 | 0.00 | 0.00 | 0.00 | 83 | 1019.1 |
| 20260509031143 | 61 | 278 | 0.0 | 0.0 | 0.00 | 0.00 | 0.00 | 83 | 1019.3 |
| 20260509030641 | 61 | 278 | 0.0 | 0.0 | 0.00 | 0.00 | 0.00 | 83 | 1019.0 |
| 20260509030138 | 61 | 286 | 0.0 | 0.0 | 0.00 | 0.00 | 0.00 | 83 | 1019.1 |
| 20260509025634 | 61 | 283 | 0.0 | 0.0 | 0.00 | 0.00 | 0.00 | 83 | 1019.3 |
| 20260509025130 | 61 | 283 | 0.0 | 0.0 | 0.00 | 0.00 | 0.00 | 82 | 1019.1 |
| 20260509024625 | 62 | 282 | 0.0 | 0.0 | 0.00 | 0.00 | 0.00 | 82 | 1019.3 |
| 20260509024122 | 62 | 282 | 0.0 | 0.0 | 0.00 | 0.00 | 0.00 | 82 | 1019.1 |
| 20260509023620 | 62 | 282 | 0.0 | 0.0 | 0.00 | 0.00 | 0.00 | 82 | 1019.1 |
| 20260509023116 | 62 | 282 | 0.0 | 0.0 | 0.00 | 0.00 | 0.00 | 82 | 1019.0 |
| 20260509022612 | 62 | 278 | 0.0 | 0.0 | 0.00 | 0.00 | 0.00 | 81 | 1019.3 |
| 20260509022111 | 62 | 278 | 0.0 | 0.0 | 0.00 | 0.00 | 0.00 | 80 | 1019.1 |
| 20260509021607 | 62 | 278 | 0.0 | 0.0 | 0.00 | 0.00 | 0.00 | 80 | 1019.6 |
| 20260509021104 | 62 | 278 | 0.0 | 0.0 | 0.00 | 0.00 | 0.00 | 80 | 1019.1 |
| 20260509020603 | 62 | 278 | 0.0 | 0.0 | 0.00 | 0.00 | 0.00 | 79 | 1019.4 |
| 20260509020059 | 62 | 273 | 0.0 | 0.0 | 0.00 | 0.00 | 0.00 | 79 | 1019.5 |
| 20260509015558 | 62 | 271 | 0.0 | 0.0 | 0.00 | 0.00 | 0.00 | 79 | 1019.4 |
| 20260509015055 | 63 | 278 | 0.0 | 0.0 | 0.00 | 0.00 | 0.00 | 79 | 1019.5 |
| 20260509014551 | 63 | 278 | 0.0 | 0.0 | 0.00 | 0.00 | 0.00 | 78 | 1019.4 |
| 20260509014048 | 63 | 277 | 0.0 | 2.0 | 0.00 | 0.00 | 0.00 | 79 | 1019.4 |
| 20260509013545 | 63 | 261 | 1.0 | 2.0 | 0.00 | 0.00 | 0.00 | 78 | 1019.5 |
| 20260509013040 | 63 | 270 | 0.0 | 2.0 | 0.00 | 0.00 | 0.00 | 78 | 1019.3 |
| 20260509012538 | 63 | 278 | 0.0 | 0.0 | 0.00 | 0.00 | 0.00 | 77 | 1019.5 |
| 20260509012034 | 63 | 277 | 0.0 | 0.0 | 0.00 | 0.00 | 0.00 | 77 | 1019.3 |
| 20260509011532 | 63 | 278 | 0.0 | 0.0 | 0.00 | 0.00 | 0.00 | 77 | 1019.6 |
| 20260509011029 | 64 | 273 | 0.0 | 0.0 | 0.00 | 0.00 | 0.00 | 76 | 1019.3 |
| 20260509010527 | 64 | 271 | 0.0 | 0.0 | 0.00 | 0.00 | 0.00 | 76 | 1019.5 |
| 20260509010023 | 64 | 255 | 2.0 | 2.0 | 0.00 | 0.00 | 0.00 | 76 | 1019.5 |
| 20260509005521 | 64 | 176 | 3.0 | 3.0 | 0.00 | 0.00 | 0.00 | 76 | 1019.6 |
| 20260509005021 | 64 | 277 | 0.0 | 0.0 | 0.00 | 0.00 | 0.00 | 75 | 1019.7 |
| 20260509004519 | 64 | 275 | 0.0 | 0.0 | 0.00 | 0.00 | 0.00 | 75 | 1019.8 |
| 20260509004015 | 64 | 272 | 0.0 | 0.0 | 0.00 | 0.00 | 0.00 | 75 | 1019.7 |
| 20260509003514 | 64 | 271 | 0.0 | 0.0 | 0.00 | 0.00 | 0.00 | 75 | 1019.7 |
| 20260509003010 | 64 | 259 | 2.0 | 3.0 | 0.00 | 0.00 | 0.00 | 75 | 1019.6 |
| 20260509002508 | 64 | 301 | 0.0 | 2.0 | 0.00 | 0.00 | 0.00 | 74 | 1019.7 |
| 20260509002005 | 64 | 229 | 2.0 | 2.0 | 0.00 | 0.00 | 0.00 | 74 | 1019.6 |
| 20260509001502 | 64 | 271 | 1.0 | 2.0 | 0.00 | 0.00 | 0.00 | 73 | 1019.7 |
| 20260509000958 | 64 | 275 | 0.0 | 0.0 | 0.00 | 0.00 | 0.00 | 73 | 1019.4 |
| 20260509000457 | 65 | 270 | 0.0 | 2.0 | 0.00 | 0.00 | 0.00 | 72 | 1019.6 |
| 20260508235952 | 65 | 283 | 0.0 | 0.0 | 0.00 | 0.00 | 0.00 | 71 | 1019.7 |
| 20260508235450 | 65 | 196 | 2.0 | 2.0 | 0.00 | 0.00 | 0.00 | 71 | 1019.6 |
| 20260508234947 | 65 | 203 | 1.0 | 2.0 | 0.00 | 0.00 | 0.00 | 70 | 1019.7 |
| 20260508234443 | 65 | 203 | 3.0 | 3.0 | 0.00 | 0.00 | 0.00 | 70 | 1019.7 |
| 20260508233941 | 65 | 251 | 1.0 | 2.0 | 0.00 | 0.00 | 0.00 | 69 | 1019.8 |
| 20260508233440 | 65 | 266 | 1.0 | 2.0 | 0.00 | 0.00 | 0.00 | 69 | 1019.5 |
| 20260508232937 | 66 | 242 | 3.0 | 3.0 | 0.00 | 0.00 | 0.00 | 69 | 1019.5 |
| 20260508232434 | 66 | 176 | 4.0 | 5.0 | 0.00 | 0.00 | 0.00 | 69 | 1019.7 |
| 20260508231931 | 66 | 269 | 0.0 | 0.0 | 0.00 | 0.00 | 0.00 | 69 | 1019.8 |
| 20260508231428 | 66 | 271 | 1.0 | 2.0 | 0.00 | 0.00 | 0.00 | 69 | 1019.7 |
| 20260508230925 | 66 | 256 | 2.0 | 2.0 | 0.00 | 0.00 | 0.00 | 68 | 1019.4 |
| 20260508230421 | 66 | 270 | 1.0 | 2.0 | 0.00 | 0.00 | 0.00 | 68 | 1019.3 |
| 20260508225919 | 66 | 278 | 0.0 | 0.0 | 0.00 | 0.00 | 0.00 | 68 | 1019.5 |
| 20260508225415 | 66 | 272 | 0.0 | 0.0 | 0.00 | 0.00 | 0.00 | 67 | 1018.9 |
| 20260508224913 | 67 | 120 | 3.0 | 5.0 | 0.00 | 0.00 | 0.00 | 66 | 1019.1 |
| 20260508224411 | 67 | 213 | 3.0 | 3.0 | 0.00 | 0.00 | 0.00 | 65 | 1018.9 |
| 20260508223908 | 67 | 270 | 1.0 | 2.0 | 0.00 | 0.00 | 0.00 | 66 | 1019.3 |
| 20260508223406 | 67 | 244 | 2.0 | 2.0 | 0.00 | 0.00 | 0.00 | 67 | 1018.7 |
| 20260508222903 | 67 | 266 | 2.0 | 3.0 | 0.00 | 0.00 | 0.00 | 66 | 1018.8 |
| 20260508222359 | 67 | 100 | 3.0 | 3.0 | 0.00 | 0.00 | 0.00 | 66 | 1018.9 |
| 20260508221856 | 67 | 271 | 0.0 | 0.0 | 0.00 | 0.00 | 0.00 | 66 | 1019.4 |
| 20260508221352 | 67 | 266 | 1.0 | 2.0 | 0.00 | 0.00 | 0.00 | 66 | 1019.5 |
| 20260508220848 | 67 | 266 | 1.0 | 2.0 | 0.00 | 0.00 | 0.00 | 66 | 1019.4 |
| 20260508220345 | 67 | 258 | 1.0 | 2.0 | 0.00 | 0.00 | 0.00 | 66 | 1019.1 |
| 20260508215841 | 68 | 273 | 3.0 | 3.0 | 0.00 | 0.00 | 0.00 | 66 | 1019.4 |
| 20260508215338 | 68 | 264 | 2.0 | 2.0 | 0.00 | 0.00 | 0.00 | 65 | 1019.3 |
| 20260508214835 | 68 | 224 | 2.0 | 3.0 | 0.00 | 0.00 | 0.00 | 64 | 1019.5 |
| 20260508214332 | 68 | 145 | 5.0 | 5.0 | 0.00 | 0.00 | 0.00 | 64 | 1018.9 |
| 20260508213828 | 68 | 275 | 0.0 | 0.0 | 0.00 | 0.00 | 0.00 | 64 | 1019.3 |
| 20260508213325 | 68 | 251 | 3.0 | 3.0 | 0.00 | 0.00 | 0.00 | 64 | 1019.3 |
| 20260508212822 | 68 | 241 | 2.0 | 3.0 | 0.00 | 0.00 | 0.00 | 63 | 1019.1 |
| 20260508212318 | 68 | 279 | 3.0 | 3.0 | 0.00 | 0.00 | 0.00 | 63 | 1019.1 |
| 20260508211814 | 68 | 266 | 1.0 | 3.0 | 0.00 | 0.00 | 0.00 | 62 | 1019.1 |
| 20260508211309 | 69 | 266 | 3.0 | 5.0 | 0.00 | 0.00 | 0.00 | 62 | 1019.5 |
| 20260508210808 | 69 | 255 | 1.0 | 2.0 | 0.00 | 0.00 | 0.00 | 62 | 1019.5 |
| 20260508210304 | 69 | 274 | 0.0 | 0.0 | 0.00 | 0.00 | 0.00 | 61 | 1019.7 |
| 20260508205801 | 69 | 249 | 2.0 | 2.0 | 0.00 | 0.00 | 0.00 | 60 | 1019.6 |
| 20260508205257 | 69 | 266 | 2.0 | 2.0 | 0.00 | 0.00 | 0.00 | 60 | 1019.6 |
| 20260508204754 | 69 | 247 | 2.0 | 3.0 | 0.00 | 0.00 | 0.00 | 60 | 1019.5 |
| 20260508204250 | 69 | 201 | 2.0 | 2.0 | 0.00 | 0.00 | 0.00 | 58 | 1019.4 |
| 20260508203746 | 69 | 285 | 0.0 | 0.0 | 0.00 | 0.00 | 0.00 | 59 | 1019.8 |
| 20260508203243 | 69 | 282 | 0.0 | 0.0 | 0.00 | 0.00 | 0.00 | 59 | 1019.7 |
| 20260508202738 | 69 | 255 | 3.0 | 3.0 | 0.00 | 0.00 | 0.00 | 57 | 1019.5 |
| 20260508202236 | 69 | 274 | 0.0 | 0.0 | 0.00 | 0.00 | 0.00 | 58 | 1019.5 |
| 20260508201733 | 69 | 214 | 1.0 | 2.0 | 0.00 | 0.00 | 0.00 | 57 | 1019.6 |
| 20260508201229 | 70 | 162 | 3.0 | 3.0 | 0.00 | 0.00 | 0.00 | 53 | 1019.4 |
| 20260508200726 | 70 | 285 | 0.0 | 0.0 | 0.00 | 0.00 | 0.00 | 55 | 1019.3 |
| 20260508200222 | 70 | 278 | 2.0 | 3.0 | 0.00 | 0.00 | 0.00 | 52 | 1019.5 |
| 20260508195719 | 70 | 276 | 0.0 | 2.0 | 0.00 | 0.00 | 0.00 | 54 | 1019.5 |
| 20260508195215 | 70 | 194 | 3.0 | 3.0 | 0.00 | 0.00 | 0.00 | 54 | 1019.6 |